Zurück zum Katalog

STARLINK-37550

AktivKommunikationVLEO
NORAD 100277·PAYLOAD·🇺🇸 United States

Gestartet Aug 11, 2026 von Cape Canaveral Space Force Station

Loading…

Nächste Überflüge (nächste 24 Stunden)

TLE

AlterndSource: Space-Track

Epoche: Sep 12, 2026, 14:47 UTC

1 A0277U 26183F   26255.61656217 -.00748338  00000-0 -60756-2 0  9991
2 A0277  53.1568 296.3800 0001293  65.0674 295.0480 15.72195858  5067

Verfolge STARLINK-37550 in Echtzeit mit AllMySat

Download on the App Store